Regional Weather Roundup
Issued by NWS Cleveland, OH

Home | Current Version | Previous Version | Graphics & Text | Print | Product List | Glossary On
Versions: 1 2 3 4 5 6 7 8 9 10 11 12 13 14 15 16 17 18 19 20 21 22 23 24 25 26 27 28 29 30 31 32 33 34 35 36 37 38 39 40 41 42 43 44 45 46 47 48 49 50
000
ASUS41 KCLE 202100
RWRCLE
OHIO REGIONAL WEATHER ROUNDUP
NATIONAL WEATHER SERVICE WILMINGTON, OH
500 PM EDT SAT SEP 20 2014

NOTE: "FAIR" INDICATES FEW OR NO CLOUDS BELOW 12,000 FEET WITH NO
SIGNIFICANT WEATHER AND/OR OBSTRUCTIONS TO VISIBILITY.

OHZ001>008-015>018-024>027-034-035-043-044-202200-
   NORTHWEST OHIO

CITY           SKY/WX    TMP DP  RH WIND       PRES   REMARKS
DEFIANCE       SUNNY     80  61  52 S15G24    29.84F
FINDLAY        MOSUNNY   81  59  47 SW16G28   29.87F
TOLEDO EXPRESS MOSUNNY   80  59  48 SW13G18   29.85F
TOLEDO METCALF SUNNY     82  55  39 SW14G28   29.85F
LIMA           SUNNY     81  59  47 SW17G25   29.90F
$$

OHZ009>014-019>023-028>033-038-089-202200-
   NORTHEAST OHIO

CITY           SKY/WX    TMP DP  RH WIND       PRES   REMARKS
CLE-HOPKINS    MOSUNNY   79  60  52 S18G29    29.91F
CLE-LAKEFRONT  MOSUNNY   80  59  48 S16G28    29.88F
CUY CO. ARPT   MOSUNNY   81  64  57 S17       29.91F
LORAIN-ELYRIA  MOSUNNY   83  60  45 SW20G26   29.90F
ASHTABULA      MOSUNNY   76  62  62 SW16G24   29.92F
AKRON-CANTON   PTSUNNY   77  61  57 SW18      29.95F
WOOSTER        NOT AVBL
MANSFIELD      MOSUNNY   79  60  52 S18       29.93F
YOUNGSTOWN     PTSUNNY   76  62  62 S15G21    29.95F
$$

OHZ042-051>053-060>062-070>072-077>081-202200-
  SOUTHWEST OHIO

CITY           SKY/WX    TMP DP  RH WIND       PRES   REMARKS
CINC-COVINGTON PTSUNNY   80  63  55 SW13      29.97F
CINC-LUNKEN    MOSUNNY   81  65  58 SW14G22   29.96F
HAMILTON       MOSUNNY   83  65  54 VRB7      29.96F
DAYTON         NOT AVBL
WRIGHT-PAT AFB SUNNY     81  62  51 SW16G23   29.95F
DAYTON GENERAL MOSUNNY   80  64  58 SW9       29.95F
WILMINGTON     MOSUNNY   80  61  52 SW21      29.96F
$$

OHZ036-037-039>041-045>050-054>059-063>069-073>076-082>088-202200-
  CENTRAL AND SOUTHEAST OHIO

CITY           SKY/WX    TMP DP  RH WIND       PRES   REMARKS
COLUMBUS       MOSUNNY   83  59  44 SW16G25   29.95F
OSU AIRPORT    MOSUNNY   82  59  45 SW16G29   29.94F
BOLTON FIELD   MOSUNNY   81  63  54 SW17G24   29.96F
RICKENBACK AFB NOT AVBL
NEWARK         MOSUNNY   80  60  50 SW14G21   29.95F
MARION         SUNNY     80  58  46 SW20G28   29.92F
LANCASTER      MOSUNNY   81  61  50 SW12G21   29.97F
ZANESVILLE     MOSUNNY   81  61  50 S14       29.98F
NEW PHILLY     PTSUNNY   79  63  57 S7        29.98F
$$



USA.gov is the U.S. government's official web portal to all federal, state and local government web resources and services.